#timestamp,LO_Frequency,Hit,StdDev 
1561924815.2,286047002.6,N
1561924835.0,286047002.6,N
1561924835.9,286047002.6,N
1561924855.8,286047002.4,N
1561924905.6,286047002.2,E
1561924915.6,286047002.4,N
1561924935.4,286046999.8,P
1561924955.2,286047002.7,N
1561924975.1,286047002.8,N
1561924976.0,286047002.8,N
1561924995.8,286047001.5,N
1561925015.6,286047002.7,N
1561925035.5,286047000.2,N
1561925055.3,286047002.8,N
1561925075.2,286047000.2,N
1561925095.9,286047000.6,N
1561925115.7,286046998.2,N
1561925135.6,286047000.5,N
1561925155.4,286047000.7,N
1561925175.2,286046998.5,N
1561925195.1,286047000.7,N
1561925196.0,286047000.7,N
1561925215.8,286047001.1,N
1561925235.7,286047001.2,N
1561925255.5,286046998.5,N
1561925275.3,286047000.7,N
1561925295.2,286046999.7,N
1561925315.0,286047000.2,N
1561925315.9,286047000.2,N
1561925335.7,286046999.9,N
1561925355.6,286047003.9,N
1561925375.4,286047004.0,N
1561925395.3,286047001.6,N
1561925415.1,286047004.4,N
1561925416.0,286047004.4,N
1561925435.8,286047001.9,N
1561925455.7,286047011.9,Y
1561925475.5,286047000.6,P
1561925495.3,286047000.6,N
1561925515.2,286046996.5,P
1561925535.0,286046999.3,N
1561925535.9,286046999.3,N
1561925555.8,286046996.8,N
1561925575.6,286046997.2,N
1561925595.4,286046999.1,N
1561925615.3,286046999.0,N
1561925635.1,286047002.8,N
1561925655.9,286046999.8,N
1561925675.7,286047002.6,N
1561925695.5,286047002.2,N
1561925715.4,286047001.4,N
1561925735.2,286046999.7,N
1561925755.0,286047001.9,N
1561925755.9,286047001.9,N
1561925775.8,286047002.2,N
1561925795.6,286047002.3,N
1561925815.5,286047002.2,N
1561925835.3,286047001.9,N
1561925855.1,286047000.6,N
1561925875.9,286047001.5,N
1561925895.7,286047001.2,N
1561925915.5,286046999.0,N
1561925935.4,286046999.2,N
1561925955.2,286046998.9,N
1561925975.1,286047000.2,N
1561925976.0,286047000.2,N
1561925995.8,286046999.8,N
1561926015.6,286047002.8,N
1561926035.5,286046999.7,N
1561926055.3,286047000.0,N
1561926075.1,286047002.2,N
1561926095.9,286047002.3,N
1561926115.7,286047001.8,N
1561926135.6,286047005.4,Y
1561926155.4,286047002.4,P
1561926175.2,286047001.0,N
1561926195.1,286047000.7,N
1561926196.0,286047000.7,N
1561926215.8,286047000.6,N
1561926235.6,286046998.7,N
1561926255.5,286046998.9,N
1561926275.3,286046998.4,N
1561926295.2,286047000.0,N
1561926315.9,286047000.6,N
1561926335.7,286046999.8,N
1561926355.6,286046999.7,N
1561926375.4,286047003.7,Y
1561926395.2,286047001.4,P
1561926415.1,286047002.7,P
1561926416.0,286047002.7,N
1561926435.8,286047002.7,N
1561926455.7,286047001.8,N
1561926475.5,286047002.4,N
1561926495.3,286047000.4,N
1561926515.2,286046999.7,N
1561926535.0,286047002.2,N
1561926535.9,286047002.2,N
1561926555.8,286047001.3,N
1561926575.6,286047001.8,N
1561926595.4,286047002.4,N
1561926615.3,286046999.7,N
1561926635.1,286047001.8,N
1561926655.8,286047003.3,Y
1561926675.7,286047003.8,P
1561926695.5,286047003.8,P
1561926715.4,286047004.1,P
1561926735.2,286047004.4,Y
1561926755.0,286046999.9,P
1561926755.9,286046999.9,N
1561926775.8,286046999.4,N
1561926795.6,286046999.0,N
1561926815.5,286047001.1,N
1561926835.3,286047000.0,N
1561926855.1,286046998.5,N
1561926875.9,286047000.9,N
1561926895.7,286046998.5,N
1561926915.5,286046999.5,N
1561926935.4,286046996.9,N
1561926955.2,286046996.9,N
1561926975.1,286046996.6,N
1561926976.0,286046996.6,N
1561926995.8,286046997.4,N
1561927015.6,286046995.4,N
1561927035.5,286046994.9,N
1561927055.3,286046997.8,N
1561927075.1,286046998.0,N
1561927095.9,286046998.8,N
1561927115.7,286046996.9,N
1561927135.6,286046999.5,N
1561927155.4,286046999.4,N
1561927175.2,286046999.4,N
1561927195.1,286046997.7,N
1561927196.0,286046997.7,N
1561927215.8,286046997.1,N
1561927235.6,286046997.2,N
1561927255.5,286046997.5,N
1561927275.3,286046999.1,N
1561927295.1,286046999.6,N
1561927315.9,286046998.5,N
1561927335.7,286046998.3,N
1561927355.6,286046996.9,N
1561927375.4,286046999.6,N
1561927395.2,286046997.9,N
1561927415.1,286046995.3,Y
1561927416.0,286046995.3,P
1561927435.8,286046997.0,N
1561927455.7,286046996.8,N
1561927475.5,286046997.2,N
1561927495.3,286046997.8,N
1561927515.2,286046999.6,N
1561927535.0,286046999.4,N
1561927535.9,286046999.4,N
1561927555.7,286046997.5,N
1561927575.6,286046997.9,N
1561927595.4,286046997.8,N
1561927615.3,286046999.5,N
1561927635.1,286046997.8,N
1561927655.8,286046998.4,N
1561927675.7,286046998.1,N
1561927695.5,286046999.2,N
1561927715.4,286046998.4,N
1561927735.2,286046998.4,N
1561927755.0,286046997.0,N
1561927755.9,286046997.0,N
1561927775.8,286046996.7,Y
1561927795.6,286047002.3,P
1561927815.4,286047000.6,N
1561927835.3,286047000.8,N
1561927855.1,286047000.2,N
1561927875.9,286047004.0,N
1561927895.7,286047004.0,N
1561927915.5,286047004.1,N
1561927935.4,286047005.8,N
1561927955.2,286047003.4,N
1561927975.1,286047005.0,N
1561927976.0,286047005.0,N
1561927995.8,286047003.5,N
1561928015.6,286047002.0,N
1561928035.5,286047002.8,N
1561928055.3,286047002.5,N
1561928075.1,286047002.0,N
1561928095.9,286047002.9,N
1561928115.7,286047004.2,N
1561928135.6,286047004.5,N
1561928155.4,286047007.1,Y
1561928175.2,286047001.6,P
1561928195.1,286047003.2,P
1561928196.0,286047003.2,P
1561928215.8,286047003.3,Y
1561928235.7,286047000.1,P
1561928255.5,286046998.2,N
1561928275.3,286046999.2,N
1561928295.2,286046998.2,N
1561928315.0,286046998.4,N
1561928315.9,286046998.4,N
1561928335.7,286046999.2,N
1561928355.6,286046999.1,N
1561928375.4,286046997.0,N
1561928395.3,286046999.1,N
